Weather History for KMFR - January, 2013

Change the Weather History Date:

Thursday, January 17, 2013

  Actual Average Record
Temperature  
Mean Temperature 30 °F 40 °F  
Max Temperature 35 °F 48 °F 65 °F (1981)
Min Temperature 25 °F 33 °F 9 °F (1952)
Degree Days  
Heating Degree Days 35 25  
Month to date heating degree days 515 434  
Since 1 July heating degree days 2067 2200  
Cooling Degree Days 0 0  
Month to date cooling degree days 0 0  
Year to date cooling degree days 0 0  
Moisture  
Dew Point 25 °F    
Average Humidity 89    
Maximum Humidity 100    
Minimum Humidity 78    
Precipitation  
Precipitation T in 0.07 in 1.53 in (1951)
Month to date precipitation 0.33 1.48  
Year to date precipitation 0.33 1.48  
Snow  
Snow 0.10 in 0.10 in - ()
Month to date snowfall 0.5 0.8  
Since 1 July snowfall 1.7 2.5  
Snow Depth 0.00 in    
Sea Level Pressure  
Sea Level Pressure 30.42 in    
Wind  
Wind Speed 0 mph (NNE)    
Max Wind Speed 5 mph    
Max Gust Speed 6 mph    
Visibility 1 miles    
Events Fog , Snow    
T = Trace of Precipitation, MM = Missing Value Source: NWS Daily Summary

Daily Weather History Graph

Daily Weather History Graph

Search for Another Location

Airport or City:

Trip Planner

Search our weather history database for the weather conditions in past years. The results will help you decide how hot, cold, wet, or windy it might be!

Date:

Astronomy

Jan. 17, 2013 Rise Set
Actual Time 7:36 AM PST 5:06 PM PST
Civil Twilight 7:06 AM PST 5:37 PM PST
Nautical Twilight 6:31 AM PST 6:12 PM PST
Astronomical Twilight 5:57 AM PST 6:45 PM PST
Moon 10:37 AM PST (1/17) No Moon Set
Length of Visible Light 10h 31m
Length of Day
9h 30m
Waxing Crescent, 39% of the Moon is Illuminated
Jan 17
Waxing Crescent
Jan 18
First Quarter
Jan 26
Full
Feb 3
Last Quarter
Feb 9
New

Hourly Weather History & Observations

Time (PST) Temp. Windchill Dew Point Humidity Pressure Visibility Wind Dir Wind Speed Gust Speed Precip Events Conditions
12:53 AM 28.9 °F - 25.0 °F 85% 30.51 in 0.2 mi Calm Calm - N/A Fog Light Freezing Fog
1:53 AM 28.9 °F - 25.0 °F 85% 30.51 in 0.2 mi Calm Calm - N/A Fog Light Freezing Fog
2:53 AM 28.9 °F - 24.1 °F 82% 30.51 in 0.2 mi Calm Calm - N/A   Haze
3:53 AM 28.4 °F - 24.8 °F 86% 30.46 in 0.2 mi Calm Calm - N/A   Haze
4:53 AM 28.9 °F - 24.1 °F 82% 30.49 in 0.2 mi Calm Calm - N/A   Haze
5:53 AM 28.9 °F - 23.0 °F 78% 30.47 in 0.2 mi Calm Calm - N/A   Haze
6:26 AM 28.4 °F - 24.8 °F 86% 30.43 in 0.2 mi Calm Calm - N/A   Haze
6:53 AM 28.0 °F - 21.9 °F 78% 30.48 in 0.8 mi Calm Calm - 0.00 in Snow Light Snow
6:59 AM 26.6 °F 22.6 °F 21.2 °F 80% 30.43 in 2.0 mi NNE 3.5 mph - N/A Snow Light Snow
7:02 AM 26.6 °F - 21.2 °F 80% 30.43 in 4.0 mi Calm Calm - 0.00 in   Overcast
7:53 AM 26.1 °F - 23.0 °F 88% 30.48 in 5.0 mi Calm Calm - 0.00 in   Overcast
8:03 AM 26.6 °F - 23.0 °F 86% 30.44 in 0.8 mi Calm Calm - N/A   Overcast
8:10 AM 26.6 °F - 23.0 °F 86% 30.44 in 0.5 mi Calm Calm - N/A Fog Light Freezing Fog
8:31 AM 26.6 °F - 23.0 °F 86% 30.44 in 0.2 mi Calm Calm - N/A Fog Light Freezing Fog
8:45 AM 26.6 °F - 24.8 °F 93% 30.45 in 0.5 mi Calm Calm - N/A Fog Light Freezing Fog
8:53 AM 26.1 °F - 23.0 °F 88% 30.50 in 0.5 mi Calm Calm - N/A Fog Light Freezing Fog
9:00 AM 26.6 °F - 24.8 °F 93% 30.45 in 0.2 mi Calm Calm - N/A Fog Light Freezing Fog
9:53 AM 26.1 °F - 24.1 °F 92% 30.50 in 0.2 mi Calm Calm - 0.00 in Fog , Snow Light Snow
10:37 AM 28.4 °F - 24.8 °F 86% 30.44 in 1.5 mi Calm Calm - 0.00 in   Overcast
10:53 AM 28.0 °F - 24.1 °F 85% 30.48 in 1.5 mi Calm Calm - 0.00 in   Overcast
11:53 AM 28.0 °F - 26.1 °F 92% 30.43 in 1.5 mi Calm Calm - 0.00 in   Overcast
12:53 PM 30.0 °F - 27.0 °F 88% 30.40 in 1.5 mi Calm Calm - N/A   Overcast
1:53 PM 32.0 °F 28.7 °F 28.9 °F 88% 30.36 in 2.0 mi North 3.5 mph - N/A   Overcast
2:53 PM 32.0 °F - 28.9 °F 88% 30.34 in 2.0 mi Calm Calm - N/A   Mostly Cloudy
3:42 PM 33.8 °F - 30.2 °F 87% 30.30 in 4.0 mi Calm Calm - N/A   Scattered Clouds
3:53 PM 34.0 °F 31.0 °F 30.0 °F 85% 30.33 in 5.0 mi Variable 3.5 mph - N/A   Scattered Clouds
4:33 PM 30.2 °F 26.7 °F 30.2 °F 100% 30.30 in 0.2 mi NNE 3.5 mph - N/A Fog Light Freezing Fog
4:53 PM 30.9 °F - 28.9 °F 92% 30.34 in 0.2 mi Calm Calm - N/A Fog Light Freezing Fog
5:02 PM 30.2 °F - 28.4 °F 93% 30.30 in 0.2 mi Calm Calm - N/A Fog Light Freezing Fog
5:53 PM 28.9 °F - 28.0 °F 96% 30.35 in 0.2 mi Calm Calm - N/A Fog Light Freezing Fog
6:53 PM 28.0 °F - 27.0 °F 96% 30.35 in 0.2 mi Calm Calm - N/A Fog Light Freezing Fog
7:53 PM 27.0 °F - 26.1 °F 96% 30.36 in 0.2 mi Calm Calm - N/A Fog Light Freezing Fog
8:53 PM 27.0 °F - 26.1 °F 96% 30.36 in 0.2 mi Calm Calm - N/A Fog Light Freezing Fog
9:28 PM 26.6 °F - 24.8 °F 93% 30.32 in 0.2 mi Calm Calm - N/A Fog Light Freezing Fog
9:53 PM 26.1 °F - 24.1 °F 92% 30.37 in 0.2 mi Calm Calm - N/A Fog Light Freezing Fog
10:53 PM 25.0 °F - 23.0 °F 92% 30.37 in 0.2 mi Calm Calm - N/A Fog Light Freezing Fog
11:53 PM 25.0 °F - 23.0 °F 92% 30.38 in 0.2 mi Calm Calm - N/A Fog Light Freezing Fog